BOX439 OEJN-OPKC

Flight info

Callsign BOX439
Flight time N/A
Altitude 35000
Route EGRE2W EGREP T532 KODIS KATIT M440 TULBU G652 SODEB G216 LAKIV LAKI2A
Aircraft B77F/H-V/N

Departure

Time 2025-10-27 18:41
Airport King Abdulaziz International Airport (OEJN)

Arrival

Time N/A
Airport Jinnah International Airport (OPKC)
Time Latitude Longitude Altitude Speed Heading
2025-10-27 18:19 21.67836 39.15061 64 ft 0 kts 250°
2025-10-27 18:29 21.67842 39.15076 64 ft 3 kts 250°
2025-10-27 18:29 21.67865 39.15109 64 ft 3 kts 209°
2025-10-27 18:30 21.67905 39.15118 64 ft 3 kts 171°
2025-10-27 18:30 21.67924 39.15112 64 ft 3 kts 160°
2025-10-27 18:30 21.67927 39.15111 64 ft 0 kts 160°
2025-10-27 18:33 21.67890 39.15126 64 ft 14 kts 160°
2025-10-27 18:34 21.67618 39.15235 64 ft 20 kts 160°
2025-10-27 18:34 21.67604 39.15490 64 ft 26 kts 70°
2025-10-27 18:35 21.67331 39.15809 64 ft 31 kts 159°
2025-10-27 18:35 21.67133 39.15886 64 ft 30 kts 160°
2025-10-27 18:36 21.66753 39.16036 64 ft 28 kts 160°
2025-10-27 18:37 21.66324 39.16206 64 ft 22 kts 160°
2025-10-27 18:37 21.66153 39.16273 64 ft 5 kts 160°
2025-10-27 18:37 21.66142 39.16278 64 ft 0 kts 160°
2025-10-27 18:39 21.66164 39.16462 64 ft 13 kts 14°
2025-10-27 18:39 21.66301 39.16418 64 ft 39 kts 340°
2025-10-27 18:40 21.67658 39.15882 65 ft 171 kts 340°
2025-10-27 18:40 21.71895 39.14198 1882 ft 220 kts 340°
2025-10-27 18:41 21.75683 39.12676 2473 ft 203 kts 343°
2025-10-27 18:42 21.78526 39.12853 1583 ft 213 kts 24°
2025-10-27 18:42 21.80241 39.15292 1863 ft 235 kts 82°
2025-10-27 18:43 21.80550 39.18791 3890 ft 269 kts 84°
2025-10-27 18:43 21.81000 39.23279 5642 ft 334 kts 82°
2025-10-27 18:44 21.81667 39.28678 7708 ft 390 kts 81°
2025-10-27 18:44 21.83396 39.36443 10616 ft 332 kts 71°
2025-10-27 18:45 21.85042 39.41041 12399 ft 335 kts 64°
2025-10-27 18:45 21.86064 39.43349 13168 ft 347 kts 61°
2025-10-27 18:46 21.88497 39.48064 14701 ft 371 kts 57°
2025-10-27 18:46 21.91256 39.52817 16203 ft 373 kts 55°
2025-10-27 18:47 21.94070 39.57402 17681 ft 366 kts 54°
2025-10-27 18:47 21.96937 39.61950 19179 ft 370 kts 53°
2025-10-27 18:48 21.99893 39.66591 20689 ft 381 kts 53°
2025-10-27 18:48 22.04523 39.73847 22961 ft 400 kts 53°
2025-10-27 18:49 22.07687 39.78815 24460 ft 408 kts 53°
2025-10-27 18:50 22.15792 39.91568 28206 ft 412 kts 53°
2025-10-27 18:52 22.28327 40.14925 32823 ft 415 kts 65°
2025-10-27 18:54 22.37893 40.39667 34086 ft 485 kts 66°
2025-10-27 18:56 22.48687 40.67762 35002 ft 522 kts 66°
2025-10-27 18:58 22.58472 40.93353 34999 ft 522 kts 66°
2025-10-27 19:00 22.70851 41.25314 31315 ft 490 kts 68°